Location: Unspecified
(0.0000°N, 0.0000°E)
Time: 22:54:36
(UTC+00:00)

Hubble Space Telescope - Pass Details

Date: 25 September 2023
Orbit: 521 x 525 km, 28.5° (Epoch: 04 October)

Event Time Altitude Azimuth Distance (km) Brightness Sun altitude
Rises 18:56:23 0° 209° (SSW) 2,637 4.7 -16.2°
Reaches altitude 10° 18:59:51 10° 178° (S) 1,746 3.4 -17.0°
Enters shadow 19:01:27 12° 155° (SSE) 1,603 2.9 -17.4°
